When you browse on this site, cookies collect data to enhance your experience and personalize the content and advertising you see.
Visit our Privacy Policy to learn more. By continuing to use the site, you agree to this use of cookies and data.
  • In Germany
  • List of Countries
  • For 7 days
  • Water Temperature
  • Weather Map
  • Weather Widgets
  • user-avatar
    Login

    Hourly Weather Ghazni

    Today, 19 September, Thursday

    Time Temperature Precipitation Wind Pressure Humidity
    00:00 +18°C° 0 mm 1 mps 589 mmHg 9%
    01:00 +16°C° 0 mm 1 mps 588 mmHg 10%
    02:00 +15°C° 0 mm 1 mps 588 mmHg 11%
    03:00 +15°C° 0 mm 1 mps 588 mmHg 11%
    04:00 +15°C° 0 mm 1 mps 588 mmHg 12%
    05:00 +14°C° 0 mm 1 mps 588 mmHg 12%
    06:00 +16°C° 0 mm 1 mps 589 mmHg 11%
    07:00 +19°C° 0 mm 1 mps 590 mmHg 10%
    08:00 +20°C° 0 mm 2 mps 592 mmHg 9%
    09:00 +21°C° 0 mm 2 mps 592 mmHg 8%
    10:00 +24°C° 0 mm 2 mps 592 mmHg 8%
    11:00 +26°C° 0 mm 2 mps 593 mmHg 7%
    12:00 +27°C° 0 mm 2 mps 593 mmHg 7%
    13:00 +27°C° 0 mm 2 mps 592 mmHg 6%
    14:00 +28°C° 0 mm 2 mps 592 mmHg 5%
    15:00 +28°C° 0 mm 2 mps 592 mmHg 5%
    16:00 +29°C° 0 mm 2 mps 592 mmHg 5%
    17:00 +29°C° 0 mm 2 mps 592 mmHg 5%
    18:00 +26°C° 0 mm 2 mps 591 mmHg 7%
    19:00 +24°C° 0 mm 2 mps 591 mmHg 10%
    20:00 +21°C° 0 mm 2 mps 590 mmHg 12%
    21:00 +20°C° 0 mm 2 mps 590 mmHg 16%
    22:00 +20°C° 0 mm 1 mps 590 mmHg 19%
    23:00 +19°C° 0 mm 1 mps 590 mmHg 23%

    Tomorrow, 20 September, Friday

    Time Temperature Precipitation Wind Pressure Humidity
    00:00 +18°C° 0 mm 1 mps 589 mmHg 25%
    01:00 +18°C° 0 mm 1 mps 589 mmHg 26%
    02:00 +16°C° 0 mm 1 mps 588 mmHg 27%
    03:00 +16°C° 0 mm 1 mps 588 mmHg 27%
    04:00 +15°C° 0 mm 1 mps 588 mmHg 27%
    05:00 +15°C° 0 mm 1 mps 588 mmHg 27%
    06:00 +16°C° 0 mm 2 mps 589 mmHg 24%
    07:00 +18°C° 0 mm 2 mps 589 mmHg 21%
    08:00 +19°C° 0 mm 2 mps 590 mmHg 18%
    09:00 +20°C° 0 mm 2 mps 591 mmHg 16%
    10:00 +23°C° 0 mm 2 mps 591 mmHg 14%
    11:00 +25°C° 0 mm 2 mps 592 mmHg 13%
    12:00 +26°C° 0 mm 2 mps 591 mmHg 12%
    13:00 +26°C° 0 mm 2 mps 591 mmHg 11%
    14:00 +27°C° 0 mm 2 mps 591 mmHg 10%
    15:00 +27°C° 0 mm 2 mps 591 mmHg 10%
    16:00 +27°C° 0 mm 2 mps 590 mmHg 9%
    17:00 +28°C° 0 mm 2 mps 590 mmHg 9%
    18:00 +26°C° 0 mm 1 mps 590 mmHg 11%
    19:00 +24°C° 0 mm 1 mps 589 mmHg 13%
    20:00 +20°C° 0 mm 0 mps 589 mmHg 14%
    21:00 +21°C° 0 mm 1 mps 589 mmHg 18%
    22:00 +20°C° 0 mm 1 mps 589 mmHg 22%
    23:00 +19°C° 0 mm 1 mps 589 mmHg 26%

    Day after tomorrow, 21 September, Saturday

    Time Temperature Precipitation Wind Pressure Humidity
    00:00 +19°C° 0 mm 1 mps 588 mmHg 28%
    01:00 +18°C° 0 mm 1 mps 588 mmHg 31%
    02:00 +15°C° 0 mm 0 mps 587 mmHg 34%
    03:00 +16°C° 0 mm 1 mps 587 mmHg 33%
    04:00 +16°C° 0 mm 1 mps 587 mmHg 32%
    05:00 +15°C° 0 mm 1 mps 587 mmHg 31%
    06:00 +18°C° 0 mm 1 mps 588 mmHg 28%
    07:00 +19°C° 0 mm 1 mps 589 mmHg 25%
    08:00 +20°C° 0 mm 1 mps 590 mmHg 22%
    09:00 +22°C° 0 mm 1 mps 590 mmHg 21%
    10:00 +23°C° 0 mm 1 mps 590 mmHg 20%
    11:00 +25°C° 0 mm 1 mps 591 mmHg 19%
    12:00 +26°C° 0 mm 1 mps 591 mmHg 17%
    13:00 +27°C° 0 mm 2 mps 590 mmHg 15%
    14:00 +28°C° 0 mm 2 mps 590 mmHg 13%
    15:00 +28°C° 0 mm 3 mps 590 mmHg 13%
    16:00 +28°C° 0 mm 3 mps 590 mmHg 12%
    17:00 +29°C° 0 mm 3 mps 590 mmHg 11%
    18:00 +27°C° 0 mm 3 mps 590 mmHg 13%
    19:00 +25°C° 0 mm 3 mps 589 mmHg 14%
    20:00 +23°C° 0 mm 2 mps 589 mmHg 15%
    21:00 +21°C° 0 mm 2 mps 589 mmHg 16%
    22:00 +20°C° 0 mm 2 mps 589 mmHg 17%
    23:00 +19°C° 0 mm 2 mps 588 mmHg 17%

    22 September, Sunday

    Time Temperature Precipitation Wind Pressure Humidity
    00:00 +19°C° 0 mm 1 mps 588 mmHg 20%
    01:00 +18°C° 0 mm 1 mps 587 mmHg 22%
    02:00 +15°C° 0 mm 0 mps 587 mmHg 25%
    03:00 +15°C° 0 mm 0 mps 587 mmHg 26%
    04:00 +14°C° 0 mm 0 mps 586 mmHg 28%
    05:00 +13°C° 0 mm 0 mps 586 mmHg 30%
    06:00 +16°C° 0 mm 1 mps 587 mmHg 27%
    07:00 +19°C° 0 mm 1 mps 589 mmHg 25%
    08:00 +21°C° 0 mm 1 mps 590 mmHg 22%
    09:00 +22°C° 0 mm 1 mps 591 mmHg 21%
    10:00 +24°C° 0 mm 1 mps 591 mmHg 19%
    11:00 +25°C° 0 mm 1 mps 592 mmHg 18%
    12:00 +27°C° 0 mm 1 mps 592 mmHg 16%
    13:00 +28°C° 0 mm 1 mps 591 mmHg 14%
    14:00 +29°C° 0 mm 1 mps 591 mmHg 12%
    15:00 +29°C° 0 mm 2 mps 591 mmHg 11%
    16:00 +29°C° 0 mm 2 mps 591 mmHg 11%
    17:00 +29°C° 0 mm 2 mps 591 mmHg 10%
    18:00 +27°C° 0 mm 1 mps 591 mmHg 12%
    19:00 +25°C° 0 mm 1 mps 590 mmHg 14%
    20:00 +23°C° 0 mm 1 mps 590 mmHg 15%
    21:00 +22°C° 0 mm 1 mps 590 mmHg 17%
    22:00 +22°C° 0 mm 1 mps 590 mmHg 18%
    23:00 +21°C° 0 mm 1 mps 590 mmHg 19%

    23 September, Monday

    Time Temperature Precipitation Wind Pressure Humidity
    00:00 +20°C° 0 mm 1 mps 590 mmHg 22%
    01:00 +19°C° 0 mm 1 mps 589 mmHg 24%
    02:00 +18°C° 0 mm 1 mps 589 mmHg 26%
    03:00 +18°C° 0 mm 1 mps 589 mmHg 25%
    04:00 +16°C° 0 mm 1 mps 589 mmHg 25%
    05:00 +16°C° 0 mm 1 mps 588 mmHg 24%
    06:00 +18°C° 0 mm 1 mps 589 mmHg 22%
    07:00 +20°C° 0 mm 1 mps 591 mmHg 19%
    08:00 +22°C° 0 mm 1 mps 592 mmHg 17%
    09:00 +23°C° 0 mm 1 mps 592 mmHg 16%
    10:00 +25°C° 0 mm 1 mps 592 mmHg 14%
    11:00 +27°C° 0 mm 1 mps 593 mmHg 13%
    12:00 +28°C° 0 mm 2 mps 593 mmHg 12%
    13:00 +29°C° 0 mm 2 mps 592 mmHg 11%
    14:00 +30°C° 0 mm 2 mps 592 mmHg 10%
    15:00 +30°C° 0 mm 2 mps 592 mmHg 10%
    16:00 +30°C° 0 mm 2 mps 592 mmHg 10%
    17:00 +30°C° 0 mm 3 mps 592 mmHg 9%
    18:00 +28°C° 0 mm 3 mps 591 mmHg 12%
    19:00 +26°C° 0 mm 3 mps 591 mmHg 14%
    20:00 +24°C° 0 mm 2 mps 591 mmHg 16%
    21:00 +23°C° 0 mm 2 mps 590 mmHg 21%
    22:00 +21°C° 0 mm 2 mps 590 mmHg 26%
    23:00 +21°C° 0 mm 1 mps 590 mmHg 30%

    24 September, Tuesday

    Time Temperature Precipitation Wind Pressure Humidity
    00:00 +20°C° 0 mm 1 mps 589 mmHg 33%
    01:00 +19°C° 0 mm 1 mps 589 mmHg 35%
    02:00 +18°C° 0 mm 1 mps 589 mmHg 37%
    03:00 +18°C° 0 mm 1 mps 588 mmHg 37%
    04:00 +16°C° 0 mm 1 mps 588 mmHg 38%
    05:00 +16°C° 0 mm 1 mps 588 mmHg 38%
    06:00 +19°C° 0 mm 1 mps 589 mmHg 34%
    07:00 +20°C° 0 mm 1 mps 590 mmHg 30%
    08:00 +22°C° 0 mm 1 mps 591 mmHg 25%
    09:00 +23°C° 0 mm 1 mps 592 mmHg 23%
    10:00 +25°C° 0 mm 1 mps 592 mmHg 21%
    11:00 +27°C° 0 mm 1 mps 593 mmHg 18%
    12:00 +28°C° 0 mm 1 mps 592 mmHg 16%
    13:00 +29°C° 0 mm 1 mps 592 mmHg 14%
    14:00 +30°C° 0 mm 2 mps 592 mmHg 12%
    15:00 +30°C° 0 mm 2 mps 592 mmHg 11%
    16:00 +30°C° 0 mm 2 mps 592 mmHg 11%
    17:00 +30°C° 0 mm 2 mps 591 mmHg 10%
    18:00 +28°C° 0 mm 2 mps 591 mmHg 12%
    19:00 +26°C° 0 mm 2 mps 591 mmHg 15%
    20:00 +24°C° 0 mm 1 mps 591 mmHg 17%
    21:00 +23°C° 0 mm 1 mps 590 mmHg 20%
    22:00 +22°C° 0 mm 1 mps 590 mmHg 24%
    23:00 +21°C° 0 mm 1 mps 590 mmHg 27%
    Show more